Location: Assonval
(50.5652°N, 2.0796°E)
Time: 23:23:38
(UTC+00:00)

Daily predictions for brighter satellites

Satellite Brightness Start Highest point End
(mag) Time Altitude Azimuth Time Altitude Azimuth Time Altitude Azimuth
Cosmos 1666 Rocket 3.7 20:44:35 10° N 20:49:04 87° WSW 20:53:31 10° S
Meteor 2-10 Rocket 3.8 20:43:21 10° NNW 20:49:08 88° W 20:54:41 10° S
USA 305 3.3 20:47:14 10° SSW 20:50:38 28° SE 20:53:41 10° E
Cosmos 1953 4.2 20:50:27 10° NNE 20:52:47 16° ENE 20:55:07 10° ESE
Okean-O 3.4 20:52:25 10° S 20:56:41 51° W 21:00:59 10° NNW
Cosmos 1633 Rocket 3.1 20:54:52 10° NNW 20:59:12 84° W 21:03:30 10° S
Meteor 1-22 Rocket 4.3 20:54:03 10° N 20:59:22 64° ENE 21:04:48 10° SSE
Lacrosse 4 Rocket 1.5 20:55:33 10° NNW 20:59:45 76° NE 21:04:00 10° SE
NOSS 3-4 (A) 3.2 20:56:39 10° SW 21:02:01 79° SE 21:08:00 10° NE
NOSS 3-4 (C) 3.2 20:56:46 10° SW 21:02:07 78° SE 21:08:06 10° NE
Cosmos 1818 3.7 20:59:58 10° SSW 21:05:15 54° ESE 21:10:34 10° NE
Cosmos 2016 Rocket 4.5 21:00:14 10° N 21:06:23 51° ENE 21:12:33 10° SSE
IKONOS-2 4.4 21:03:47 10° NNE 21:07:57 77° ESE 21:12:05 10° S
SAR-Lupe-2 3.8 21:05:13 10° S 21:08:48 71° WSW 21:12:25 10° NNW
Cosmos 1455 2.2 21:07:37 10° NNW 21:10:15 46° W 21:12:53 10° S
ARIANE 6 FM1 Upper Stage 4.2 21:08:37 10° WNW 21:12:06 27° WSW 21:15:40 10° S
Cosmos 1328 Rocket 3.8 21:08:50 10° SSW 21:13:12 76° W 21:17:38 10° N
USA 59 Rocket 2.3 21:13:26 10° N 21:14:44 12° NNE 21:16:06 10° NE
Cosmos 2297 Rocket 2.5 21:09:16 10° SW 21:14:55 73° WNW 21:20:37 10° NNE
Cosmos 614 Rocket 4.0 21:09:44 10° SSW 21:14:55 88° ESE 21:20:05 10° NNE
Ariane Rocket 3.0 21:10:19 10° SSE 21:15:24 86° ENE 21:20:31 10° NNW
Cosmos 1470 Rocket 3.6 21:15:24 10° NNW 21:19:45 79° W 21:24:05 10° S
SPOT 3 Rocket 3.6 21:15:01 10° SSE 21:20:08 82° WSW 21:25:21 10° NNW
GP-B 4.0 21:16:30 10° NNE 21:20:28 32° E 21:23:59 12° SE
Cosmos 1758 3.4 21:18:43 10° NNW 21:22:27 67° W 21:26:08 10° S
Cosmos 2084 Rocket 3.4 21:21:21 10° NW 21:25:32 79° SW 21:29:07 13° SE
ATLAS CENTAUR R/B 1.8 21:24:17 10° NW 21:27:57 44° WSW 21:31:05 13° SSE
Meteor 1-13 Rocket 4.3 21:23:31 10° S 21:29:27 83° E 21:35:21 10° NNE
Helios 1A 4.5 21:25:57 10° N 21:29:36 36° WNW 21:33:12 10° SW
Cosmos 1933 Rocket 3.6 21:26:29 10° N 21:30:52 67° ENE 21:34:40 13° SSE
Cosmos 2173 Rocket 4.2 21:24:47 10° NNW 21:30:59 74° W 21:37:04 10° S
Cosmos 1992 Rocket 4.1 21:28:20 10° NNW 21:33:32 72° WSW 21:38:16 12° SSE
PSLV R/B 3.8 21:33:05 11° S 21:36:09 56° WSW 21:39:25 10° NNW
SL-16 R/B 2.2 21:31:00 10° NNW 21:36:42 89° ENE 21:41:38 14° SSE
Terra 3.7 21:35:28 10° SSW 21:39:20 25° W 21:43:13 10° NW
Cosmos 1515 Rocket 3.6 21:35:34 10° S 21:40:00 89° WNW 21:44:28 10° N
Cosmos 2344 4.3 21:32:41 10° NW 21:40:20 62° NE 21:50:24 10° ESE
Meteor 1-23 Rocket 4.3 21:35:48 10° S 21:41:17 66° E 21:46:52 10° NNE
Cosmos 2227 Rocket 2.2 21:37:47 10° SSW 21:43:27 88° WNW 21:49:09 10° NNE
Cosmos 2233 Rocket 4.2 21:37:53 10° N 21:44:12 67° ENE 21:49:37 14° SSE
RESURS DK-1 2.2 21:40:33 10° SSW 21:44:32 69° ESE 21:48:32 10° NE
COSMOS 2455 3.9 21:39:32 10° NW 21:45:00 36° WSW 21:50:25 10° S
Cosmos 1869 Rocket 3.7 21:40:48 10° N 21:45:11 62° ENE 21:48:34 16° SSE
Meteor 1-16 Rocket 4.5 21:41:38 10° N 21:47:23 66° ENE 21:52:16 15° SSE
Meteor 1-21 4.4 21:42:07 11° S 21:47:29 59° E 21:53:09 10° NNE
Cosmos 2263 Rocket 2.3 21:42:32 10° S 21:48:03 56° ESE 21:53:38 10° NE
Iridium 51 4.1 21:46:32 10° N 21:50:15 85° W 21:53:07 15° S
Okean O Rocket 4.2 21:48:58 10° WSW 21:50:48 12° W 21:52:38 10° WNW
Okean 2 4.3 21:50:02 17° SE 21:52:20 30° E 21:55:46 10° NNE
Okean 3 4.4 21:50:57 17° SE 21:53:28 31° E 21:57:06 10° NNE
Cosmos 1725 Rocket 4.2 21:49:48 10° NNW 21:56:05 75° W 22:01:55 12° S
Cosmos 1943 3.7 21:52:37 10° NNW 21:58:13 54° NE 22:03:04 14° SE
ASTEX 1 4.4 21:54:42 10° NNE 21:59:12 33° E 22:02:22 17° SE
Cosmos 1437 Rocket 2.9 21:55:45 10° SSW 21:59:16 63° WNW 22:02:50 10° N
Cosmos 921 Rocket 4.4 21:58:24 10° SW 22:02:26 40° WNW 22:06:33 10° N
SeaSat 1 4.4 22:00:07 10° E 22:03:49 22° NE 22:07:31 10° N
Cosmos 1763 Rocket 4.3 22:03:23 10° NNW 22:08:18 42° ENE 22:12:23 14° SE
Geosat 3.9 22:03:34 10° NNE 22:08:37 76° ESE 22:13:36 10° SSW
Cosmos 2219 3.2 22:03:12 10° SSW 22:08:53 69° ESE 22:14:37 10° NNE
COBE Rocket 3.9 22:05:41 10° NNE 22:10:48 84° ESE 22:15:11 13° SSW
MetOp-A 4.3 22:10:28 17° SE 22:13:53 49° ENE 22:18:14 10° N
USA 290 2.1 22:14:13 20° S 22:16:13 66° ESE 22:19:25 10° NNE
Meteor 2-16 Rocket 4.4 22:12:54 14° S 22:18:11 79° E 22:24:18 10° NNE
Cosmos 2082 3.8 22:12:58 11° SSW 22:18:21 63° ESE 22:24:02 10° NE
USA 305 2.3 22:15:20 10° WSW 22:19:07 79° NNW 22:22:09 10° ENE
Cosmos 2292 Rocket 3.3 22:18:12 26° SE 22:19:18 38° E 22:22:02 10° NNE
SL-8 R/B 4.2 22:15:36 10° W 22:20:05 41° SSW 22:22:54 20° SE
Okean 1-7 4.2 22:19:41 18° SE 22:21:39 26° E 22:25:06 10° NNE
ARIANE 5 R/B 3.0 22:20:49 20° SE 22:23:45 56° ENE 22:28:09 10° N
Cosmos 546 4.5 22:20:20 10° WSW 22:24:08 84° S 22:27:58 10° E
Cosmos 2237 Rocket 4.5 22:22:11 10° WNW 22:24:58 14° W 22:27:45 10° SW
SL-4 R/B 2.7 22:21:19 10° SSW 22:25:00 32° SE 22:28:36 10° E
Cosmos 1953 2.7 22:24:43 10° NNW 22:28:23 52° W 22:30:44 20° SSW
Cosmos 1140 Rocket 3.4 22:26:48 15° SSW 22:31:00 72° ESE 22:36:08 10° NNE
Spot 4 4.3 22:30:33 19° SE 22:33:47 54° ENE 22:38:30 10° N
Cosmos 2061 Rocket 4.4 22:28:26 10° NNW 22:34:38 60° W 22:39:36 16° SSW
NOSS 3-1 (C) 4.0 22:28:59 10° NW 22:35:57 88° NE 22:43:29 15° SE
Cosmos 1703 3.0 22:34:57 28° SSE 22:36:35 60° E 22:40:02 10° NNE
Lacrosse 4 Rocket 3.6 22:34:41 10° WNW 22:37:10 15° WSW 22:39:40 10° SW
Cosmos 1892 2.3 22:43:00 35° SSE 22:43:58 54° E 22:46:54 10° NNE
Cosmos 1023 Rocket 4.4 22:40:15 13° SSW 22:44:49 85° WNW 22:49:56 10° NNE
CZ-4C R/B 3.0 22:47:42 10° N 22:50:57 70° WNW 22:52:42 25° SSW
DNEPR-1 R/B 4.4 22:45:56 10° SW 22:51:42 66° NW 22:56:30 10° NE
USA 307 4.2 22:54:10 19° ESE 22:54:10 19° ESE 22:56:20 10° E
Cosmos 407 Rocket 3.5 22:50:55 22° S 22:54:12 64° ESE 22:59:16 10° NNE
Cosmos 2228 Rocket 3.0 22:54:32 25° S 22:57:08 80° E 23:01:36 10° NNE
Cosmos 1844 Rocket 3.2 22:54:47 23° SSE 22:57:54 43° ESE 23:03:14 10° NE
Cosmos 2251 Rocket 3.9 22:59:05 24° S 23:02:02 50° ESE 23:07:12 10° NNE
USA 234 4.5 22:57:21 10° ENE 23:02:05 21° SE 23:03:50 19° SE
Cosmos 1844 4.2 22:59:50 23° SSE 23:02:42 41° ESE 23:07:54 10° NE
USA 59 Rocket 0.6 23:01:09 10° NNW 23:04:25 45° NE 23:08:27 11° ESE
Cosmos 1707 Rocket 3.6 23:05:01 23° SSW 23:07:38 73° WNW 23:11:56 10° N
Landsat 5 3.4 23:03:26 10° NNE 23:07:44 77° ESE 23:09:56 27° S
ATLAS 3B R/B 4.1 23:02:45 10° NW 23:10:15 43° NNE 23:17:36 10° E
Cosmos 540 Rocket 3.4 23:06:26 10° NNW 23:11:34 80° WSW 23:14:32 26° SSE
Cosmos 1190 Rocket 4.4 23:12:32 25° SSE 23:15:18 50° ESE 23:20:24 10° NNE
ALOS 2 2.6 23:14:27 28° S 23:16:44 83° WSW 23:21:10 10° NNW
Cosmos 1733 Rocket 4.0 23:15:31 10° NNW 23:19:36 38° W 23:21:58 21° SSW
SL-16 R/B 4.1 23:16:28 10° WNW 23:20:01 17° W 23:23:29 10° SW
Cosmos 468 Rocket 3.9 23:17:13 10° NNW 23:22:25 89° WSW 23:25:26 25° SSE
Cosmos 841 Rocket 4.1 23:18:27 10° NNW 23:23:36 52° ENE 23:27:33 17° SE
NOSS 3-1 (A) 4.0 23:17:18 10° NW 23:24:19 89° NE 23:32:25 12° SE
Cosmos 1464 Rocket 4.1 23:20:45 10° NNW 23:27:02 73° W 23:31:00 24° S
ATLAS 2AS CENTAUR R/B 3.5 23:25:05 22° SSE 23:28:39 35° ESE 23:34:49 10° NE
CZ-2C R/B 4.5 23:26:19 10° N 23:30:39 47° WNW 23:34:03 16° SW
Meteor 2-5 Rocket 4.3 23:27:46 23° SSE 23:31:14 50° E 23:36:58 10° NNE
Cosmos 2263 Rocket 3.8 23:27:08 10° WSW 23:32:16 33° NW 23:37:26 10° NNE
Cosmos 2034 Rocket 4.0 23:27:42 10° N 23:33:58 89° E 23:37:59 24° S
Cosmos 1833 Rocket 4.0 23:32:24 10° NNW 23:37:37 37° NE 23:42:48 10° ESE
Cosmos 1908 Rocket 3.6 23:35:35 10° NNW 23:39:56 72° W 23:42:02 30° S
SeaSat 1 2.4 23:37:33 23° SSE 23:40:40 90° ENE 23:45:37 10° NNW
Cosmos 1943 4.3 23:37:02 10° NW 23:42:00 31° WSW 23:44:50 20° SSW
Aureole 3 Rocket 3.8 23:39:22 10° NNW 23:42:09 29° W 23:43:25 22° SW
USA 305 3.6 23:44:46 10° WNW 23:47:53 35° N 23:50:14 10° ENE
Cosmos 1763 Rocket 4.5 23:45:21 10° NW 23:49:54 33° WSW 23:52:18 22° SSW
Cosmos 1271 Rocket 2.8 23:50:19 31° SW 23:51:52 61° WNW 23:55:28 10° N
NOSS 2-1 (D) 3.2 23:51:18 10° NW 23:54:46 76° SW 23:57:18 24° SE
